STARLINK-1372, 45543

Orbit data source: Space-Track

STARLINK-1372, 45543 is a payload satellite owned by SpaceX/Seattle (US) in LEO that was launched on Wed, 22 Apr 2020 UTC via an FALCON 9 launch vehicle from the Air Force Eastern Test Range (AFETR). Payload-class satellites include a variety of spacecraft equipped with specific instruments for various scientific and technological missions. These include communications satellites like Starlink; space stations such as the ISS; scientific satellites like the Hubble; Earth observation satellites from companies like Planet Labs, Umbra, and HawkEye 360; GPS; miniature CubeSats for education and research; and military/defense satellites.

Loading next visibility...
Identifier
45543, 2020-025N
Orbit
LEO
Country
Flag of USUS
Related business
Manufacturer
SpaceX/Seattle
Mission
Partially operational Commercial Communications
Bus & Motor
STARLINK, Unknown motor
Mass
260 kg wet, ~248 kg dry
Launch date (UTC)
2020-04-22 (6 years ago)
Launch vehicle
FALCON 9
Launch site
Air Force Eastern Test Range (AFETR)
Object type
Payload
Rocket body
Debris
Shape & HBR
Box + 1 Pan, 10.1 m
Radar Cross Section
13.562 m², Large (>1 m²)

Expand to show TLE details & history
Last TLE update: 15 hours ago

TLE from 15 hours ago
0 STARLINK-1372
1 45543U 20025N   26170.85593206  .00040904  00000-0  10477-2 0  9992
2 45543  53.1576 343.5848 0001776 183.0675 177.0319 15.39013495339953
Epoch: 2026-06-19T20:32Z
TLE epoch observation values (Epoch: 2026-06-19T20:32:32.529Z)
Latitude
-0.00005°
Longitude
127.37032°
Altitude
451.139 km
Speed
7.642 km/s
True Right ascension
22h 54m 20s
True Declination
0° 00' 00"
Sunlit
Object was in daylight at epoch
Visualization orbit readout
Latitude
Unknown
Longitude
Unknown
Altitude
Unknown
Speed
Unknown
Apparent Right ascension
Unknown
Apparent Declination
Unknown
Sunlit
N/A
Visualization observer readout
Local Sidereal Time
21:58:35
Azimuth
Unknown
Elevation
Unknown
Doppler factor
Unknown
Orbital elements
Apogee altitude
450.496 km
Perigee altitude
448.07 km
Semi-major axis
6,827.42 km
Eccentricity
0.00018
Inclination
53.1576°
RAAN
343.5848°
Arg. of periapsis
183.0675°
True anomaly
177.03295°
Mean anomaly
177.0319°
Eccentric anomaly
177.03243°
Mean motion
3.84732 °/min
Orbital period
93.57 mins
BSTAR
0.0010477
Loading maneuver chart data...
Computing Atmospheric mass density...
Loading historical data...
Loading historical data...
Loading historical data...
Loading historical data...
Loading historical data...
Loading historical data...
Loading historical data...

Documentation

Showing up to 5 results
|